GW4081 Weather Reports


Display with metric or nautical units.
time (UTC)temp
F
wind
direction
speed
MPH
gust
MPH
rain 1hr
in
rain 24hr
in
rain mn
in
humidity
%
barometer
mb
20260906073103 84 198 3.0 5.0 0.00 0.00 0.00 59 1013.4
20260906072603 84 192 4.0 5.0 0.00 0.00 0.00 59 1013.5
20260906072103 84 190 3.0 5.0 0.00 0.00 0.00 59 1013.5
20260906070604 84 189 3.0 5.0 0.00 0.00 0.00 59 1013.5
20260906065604 84 180 3.0 6.0 0.00 0.00 0.00 58 1013.5
20260906065104 84 180 3.0 6.0 0.00 0.00 0.00 58 1013.5
20260906064603 84 177 3.0 5.0 0.00 0.00 0.00 58 1013.5
20260906064103 85 187 3.0 5.0 0.00 0.00 0.00 58 1013.4
20260906063603 85 187 3.0 5.0 0.00 0.00 0.00 58 1013.4
20260906063103 85 192 3.0 6.0 0.00 0.00 0.00 57 1013.5
20260906062604 86 197 3.0 6.0 0.00 0.00 0.00 56 1013.5
20260906062103 86 195 4.0 6.0 0.00 0.00 0.00 56 1013.5
20260906061604 86 187 5.0 6.0 0.00 0.00 0.00 56 1013.5
20260906060603 85 176 3.0 6.0 0.00 0.00 0.00 56 1013.6
20260906055603 86 188 3.0 6.0 0.00 0.00 0.00 56 1013.5
20260906055103 86 193 4.0 6.0 0.00 0.00 0.00 56 1013.4
20260906054603 86 191 3.0 6.0 0.00 0.00 0.00 56 1013.5
20260906054103 86 197 3.0 5.0 0.00 0.00 0.00 56 1013.5
20260906053603 86 197 5.0 6.0 0.00 0.00 0.00 56 1013.4
20260906053104 86 199 3.0 6.0 0.00 0.00 0.00 55 1013.4
20260906052603 86 199 3.0 6.0 0.00 0.00 0.00 55 1013.3
20260906052103 86 191 4.0 6.0 0.00 0.00 0.00 55 1013.2
20260906051104 87 189 4.0 6.0 0.00 0.00 0.00 55 1013.2
20260906050604 86 183 4.0 6.0 0.00 0.00 0.00 55 1013.2
20260906050104 86 174 3.0 6.0 0.00 0.00 0.00 55 1013.1
20260906045604 86 195 2.0 5.0 0.00 0.00 0.00 56 1013.1
20260906045104 87 199 2.0 5.0 0.00 0.00 0.00 55 1013.0
20260906044604 87 188 3.0 5.0 0.00 0.00 0.00 55 1013.0
20260906044104 87 180 3.0 5.0 0.00 0.00 0.00 54 1013.0
20260906043604 87 179 3.0 6.0 0.00 0.00 0.00 54 1013.1
20260906043104 87 181 3.0 6.0 0.00 0.00 0.00 54 1013.1
20260906042604 87 182 3.0 6.0 0.00 0.00 0.00 54 1013.1
20260906042104 87 179 5.0 6.0 0.00 0.00 0.00 55 1013.2
20260906041104 87 169 3.0 5.0 0.00 0.00 0.00 56 1013.3
20260906040603 87 175 2.0 5.0 0.00 0.00 0.00 55 1013.3
20260906040103 87 175 2.0 5.0 0.00 0.00 0.00 55 1013.3
20260906035603 88 172 2.0 5.0 0.00 0.00 0.00 54 1013.3
20260906035103 88 182 2.0 5.0 0.00 0.00 0.00 53 1013.2
20260906034604 88 171 3.0 5.0 0.00 0.00 0.00 52 1013.3
20260906034104 89 171 3.0 5.0 0.00 0.00 0.00 52 1013.2
20260906033604 89 171 3.0 5.0 0.00 0.00 0.00 51 1013.1
20260906033104 89 163 3.0 5.0 0.00 0.00 0.00 51 1013.0
20260906032604 89 160 3.0 5.0 0.00 0.00 0.00 51 1013.1
20260906031603 90 178 2.0 5.0 0.00 0.00 0.00 50 1013.0
20260906031103 90 167 3.0 5.0 0.00 0.00 0.00 50 1013.0
20260906030603 90 175 2.0 5.0 0.00 0.00 0.00 49 1013.0
20260906025603 91 171 3.0 7.0 0.00 0.00 0.00 48 1013.0
20260906025104 91 168 4.0 7.0 0.00 0.00 0.00 48 1013.0
20260906024604 91 171 5.0 7.0 0.00 0.00 0.00 48 1012.9
20260906024104 91 174 3.0 6.0 0.00 0.00 0.00 48 1012.8
20260906023604 91 173 4.0 6.0 0.00 0.00 0.00 48 1012.9
20260906023103 91 159 3.0 5.0 0.00 0.00 0.00 49 1012.8
20260906022604 91 165 3.0 5.0 0.00 0.00 0.00 48 1012.7
20260906022104 91 161 3.0 5.0 0.00 0.00 0.00 48 1012.6
20260906021603 91 161 2.0 3.0 0.00 0.00 0.00 48 1012.6
20260906021104 91 161 2.0 3.0 0.00 0.00 0.00 48 1012.5
20260906020603 91 161 2.0 3.0 0.00 0.00 0.00 48 1012.4
20260906020104 91 161 1.0 2.0 0.00 0.00 0.00 48 1012.4
20260906015603 92 161 1.0 3.0 0.00 0.00 0.00 48 1012.5
20260906015103 92 161 2.0 3.0 0.00 0.00 0.00 47 1012.4
20260906014604 93 161 1.0 2.0 0.00 0.00 0.00 46 1012.4
20260906014105 93 161 1.0 2.0 0.00 0.00 0.00 46 1012.3
20260906013605 94 161 1.0 3.0 0.00 0.00 0.00 45 1012.3
20260906013105 94 161 2.0 3.0 0.00 0.00 0.00 45 1012.1
20260906012605 94 161 2.0 5.0 0.00 0.00 0.00 45 1012.1
20260906012105 94 161 3.0 6.0 0.00 0.00 0.00 45 1012.0
20260906011605 94 171 4.0 6.0 0.00 0.00 0.00 44 1011.9
20260906011105 95 176 4.0 6.0 0.00 0.00 0.00 44 1011.9
20260906010605 95 189 4.0 6.0 0.00 0.00 0.00 43 1011.9
20260906005105 96 170 3.0 6.0 0.00 0.00 0.00 42 1011.8
20260906004605 96 178 2.0 7.0 0.00 0.00 0.00 42 1011.8
20260906004105 97 173 5.0 7.0 0.00 0.00 0.00 42 1011.7
20260906003605 97 182 5.0 12.0 0.00 0.00 0.00 41 1011.7
20260906002605 98 182 6.0 10.0 0.00 0.00 0.00 41 1011.7
20260906002105 98 168 6.0 10.0 0.00 0.00 0.00 40 1011.6
20260906001105 98 177 6.0 10.0 0.00 0.00 0.00 40 1011.7
20260906000605 99 170 6.0 10.0 0.00 0.00 0.00 40 1011.6
20260906000105 99 145 6.0 10.0 0.00 0.00 0.00 39 1011.5
20260905235605 99 113 3.0 9.0 0.00 0.00 0.00 38 1011.5
20260905235105 99 123 3.0 12.0 0.00 0.00 0.00 38 1011.5
20260905234605 99 137 6.0 12.0 0.00 0.00 0.00 39 1011.5
20260905234105 99 173 5.0 13.0 0.00 0.00 0.00 39 1011.4
20260905233105 100 186 6.0 12.0 0.00 0.00 0.00 39 1011.3
20260905232605 100 148 8.0 12.0 0.00 0.00 0.00 38 1011.3
20260905232105 100 170 6.0 12.0 0.00 0.00 0.00 38 1011.3
20260905231605 100 167 5.0 12.0 0.00 0.00 0.00 38 1011.3
20260905230604 100 174 4.0 12.0 0.00 0.00 0.00 38 1011.3
20260905230105 100 168 7.0 15.0 0.00 0.00 0.00 38 1011.3
20260905225605 100 174 7.0 17.0 0.00 0.00 0.00 38 1011.3
20260905224605 100 136 6.0 14.0 0.00 0.00 0.00 38 1011.2
20260905223605 100 170 7.0 14.0 0.00 0.00 0.00 38 1011.2
20260905222605 100 129 9.0 16.0 0.00 0.00 0.00 38 1011.3
20260905222105 100 142 10.0 16.0 0.00 0.00 0.00 38 1011.2
20260905221106 101 177 7.0 12.0 0.00 0.00 0.00 37 1011.3
20260905220105 100 164 9.0 16.0 0.00 0.00 0.00 38 1011.4
20260905214605 101 181 9.0 14.0 0.00 0.00 0.00 38 1011.5
20260905214104 101 125 6.0 17.0 0.00 0.00 0.00 38 1011.6
20260905213605 101 139 9.0 17.0 0.00 0.00 0.00 38 1011.6
20260905213105 101 177 11.0 16.0 0.00 0.00 0.00 38 1011.6
20260905212105 101 172 8.0 18.0 0.00 0.00 0.00 37 1011.9
20260905211604 101 193 9.0 17.0 0.00 0.00 0.00 37 1011.9
20260905211104 100 171 9.0 15.0 0.00 0.00 0.00 38 1011.9
20260905210105 101 155 8.0 17.0 0.00 0.00 0.00 37 1012.1
20260905205604 101 160 9.0 15.0 0.00 0.00 0.00 38 1012.2
20260905205105 100 140 8.0 14.0 0.00 0.00 0.00 38 1012.2
20260905204105 100 167 9.0 15.0 0.00 0.00 0.00 38 1012.3
20260905203605 101 142 10.0 15.0 0.00 0.00 0.00 39 1012.4
20260905203105 101 32 6.0 18.0 0.00 0.00 0.00 38 1012.5
20260905202605 101 136 9.0 18.0 0.00 0.00 0.00 38 1012.6
20260905201605 101 143 12.0 17.0 0.00 0.00 0.00 38 1012.7
20260905201105 101 119 8.0 15.0 0.00 0.00 0.00 39 1012.8
20260905200105 99 201 6.0 15.0 0.00 0.00 0.00 39 1012.9
20260905195605 99 179 8.0 18.0 0.00 0.00 0.00 38 1013.0
20260905195104 99 160 9.0 18.0 0.00 0.00 0.00 39 1013.2
20260905194605 100 170 6.0 14.0 0.00 0.00 0.00 39 1013.2
20260905193604 99 169 10.0 15.0 0.00 0.00 0.00 40 1013.3
20260905191605 99 125 5.0 15.0 0.00 0.00 0.00 43 1013.5
20260905190604 101 188 12.0 15.0 0.00 0.00 0.00 40 1013.7
20260905185605 100 147 3.0 14.0 0.00 0.00 0.00 42 1013.8
20260905184605 99 204 8.0 18.0 0.00 0.00 0.00 41 1014.0
20260905184104 99 155 9.0 18.0 0.00 0.00 0.00 42 1014.0
20260905183605 99 164 7.0 13.0 0.00 0.00 0.00 43 1014.1
20260905183104 99 168 8.0 13.0 0.00 0.00 0.00 41 1014.2
20260905182604 98 153 7.0 10.0 0.00 0.00 0.00 44 1014.2
20260905182105 98 164 2.0 13.0 0.00 0.00 0.00 44 1014.2
20260905181105 97 167 9.0 14.0 0.00 0.00 0.00 45 1014.3
20260905180605 97 159 6.0 12.0 0.00 0.00 0.00 46 1014.4
20260905175605 97 191 6.0 12.0 0.00 0.00 0.00 45 1014.4
20260905175104 97 167 6.0 12.0 0.00 0.00 0.00 45 1014.5
20260905174606 97 159 7.0 12.0 0.00 0.00 0.00 45 1014.6
20260905174105 97 190 9.0 15.0 0.00 0.00 0.00 46 1014.6
20260905173605 96 150 5.0 15.0 0.00 0.00 0.00 46 1014.7
20260905173105 97 182 7.0 14.0 0.00 0.00 0.00 46 1014.7
20260905172605 98 163 6.0 14.0 0.00 0.00 0.00 46 1014.8
20260905172105 97 135 8.0 14.0 0.00 0.00 0.00 46 1014.8
20260905171105 96 179 6.0 13.0 0.00 0.00 0.00 47 1015.0
20260905170105 96 112 7.0 14.0 0.00 0.00 0.00 48 1015.0
20260905165105 95 131 3.0 12.0 0.00 0.00 0.00 48 1015.0
20260905164604 95 138 6.0 13.0 0.00 0.00 0.00 49 1015.1
20260905164105 95 167 8.0 13.0 0.00 0.00 0.00 50 1015.1
20260905163605 95 165 6.0 9.0 0.00 0.00 0.00 50 1015.1
20260905163105 94 205 5.0 12.0 0.00 0.00 0.00 50 1015.1
20260905162605 94 160 8.0 12.0 0.00 0.00 0.00 50 1015.1
20260905161605 94 197 7.0 12.0 0.00 0.00 0.00 52 1015.1
20260905160105 93 192 8.0 13.0 0.00 0.00 0.00 53 1015.1
20260905155105 93 179 9.0 14.0 0.00 0.00 0.00 53 1015.0
20260905154605 92 189 7.0 12.0 0.00 0.00 0.00 54 1015.0
20260905154104 92 189 6.0 14.0 0.00 0.00 0.00 54 1015.0
20260905153605 92 195 9.0 14.0 0.00 0.00 0.00 54 1015.0
20260905153104 92 203 8.0 12.0 0.00 0.00 0.00 55 1015.0
20260905152604 91 197 8.0 13.0 0.00 0.00 0.00 55 1014.9
20260905152104 91 200 6.0 13.0 0.00 0.00 0.00 56 1014.9
20260905151605 90 208 8.0 13.0 0.00 0.00 0.00 56 1014.9
20260905151105 90 199 9.0 13.0 0.00 0.00 0.00 57 1015.0
20260905150605 90 193 7.0 13.0 0.00 0.00 0.00 57 1014.9
20260905150105 89 190 10.0 13.0 0.00 0.00 0.00 57 1014.9
20260905145604 89 218 8.0 14.0 0.00 0.00 0.00 58 1015.0
20260905145105 88 205 9.0 14.0 0.00 0.00 0.00 59 1015.0
20260905144604 88 193 9.0 14.0 0.00 0.00 0.00 59 1014.9
20260905144105 88 198 9.0 13.0 0.00 0.00 0.00 60 1015.0
20260905143604 87 201 9.0 14.0 0.00 0.00 0.00 60 1015.0
20260905143104 87 199 10.0 14.0 0.00 0.00 0.00 61 1015.0
20260905142605 87 208 10.0 14.0 0.00 0.00 0.00 61 1015.0
20260905142104 86 186 8.0 14.0 0.00 0.00 0.00 62 1015.0
20260905141105 86 209 7.0 12.0 0.00 0.00 0.00 63 1015.0
20260905140605 85 183 9.0 12.0 0.00 0.00 0.00 64 1014.9
20260905140104 85 176 7.0 13.0 0.00 0.00 0.00 64 1015.0
20260905135605 84 170 8.0 15.0 0.00 0.00 0.00 65 1014.9
20260905135105 84 185 9.0 15.0 0.00 0.00 0.00 66 1014.9
20260905134604 84 185 9.0 12.0 0.00 0.00 0.00 66 1014.8
20260905134104 83 192 8.0 12.0 0.00 0.00 0.00 67 1014.8
20260905133605 83 195 8.0 12.0 0.00 0.00 0.00 67 1014.8
20260905133105 83 176 7.0 16.0 0.00 0.00 0.00 68 1014.8
20260905132604 82 178 9.0 16.0 0.00 0.00 0.00 68 1014.8
20260905132105 82 187 7.0 12.0 0.00 0.00 0.00 69 1014.8
20260905131604 82 182 7.0 12.0 0.00 0.00 0.00 70 1014.8
20260905131105 81 186 7.0 12.0 0.00 0.00 0.00 70 1014.6
20260905130105 81 173 9.0 12.0 0.00 0.00 0.00 70 1014.5
20260905125605 81 186 7.0 12.0 0.00 0.00 0.00 70 1014.4
20260905125105 80 180 7.0 12.0 0.00 0.00 0.00 71 1014.5
20260905124605 80 180 6.0 10.0 0.00 0.00 0.00 71 1014.4
20260905124104 80 177 6.0 10.0 0.00 0.00 0.00 71 1014.4
20260905122605 79 179 6.0 9.0 0.00 0.00 0.00 72 1014.2
20260905122104 79 177 6.0 9.0 0.00 0.00 0.00 72 1014.2
20260905121104 79 180 5.0 8.0 0.00 0.00 0.00 72 1014.1
20260905120605 79 177 6.0 8.0 0.00 0.00 0.00 72 1014.1
20260905120104 79 173 5.0 9.0 0.00 0.00 0.00 71 1014.0
20260905115105 80 182 6.0 9.0 0.00 0.00 0.00 71 1013.9
20260905114605 80 175 5.0 9.0 0.00 0.00 0.00 71 1013.9
20260905114105 80 177 6.0 9.0 0.00 0.00 0.00 71 1013.9
20260905113604 80 182 6.0 8.0 0.00 0.00 0.00 70 1013.9
20260905113105 80 182 6.0 8.0 0.00 0.00 0.00 70 1013.9
20260905112604 80 188 6.0 8.0 0.00 0.00 0.00 70 1013.9
20260905112105 80 186 6.0 9.0 0.00 0.00 0.00 70 1014.0
20260905111605 80 189 5.0 9.0 0.00 0.00 0.00 69 1014.0
20260905111104 80 184 5.0 8.0 0.00 0.00 0.00 69 1014.0
20260905110605 81 185 6.0 9.0 0.00 0.00 0.00 69 1014.0
20260905110105 81 193 6.0 9.0 0.00 0.00 0.00 69 1014.1
20260905105605 81 181 6.0 9.0 0.00 0.00 0.00 69 1014.1
20260905105104 81 184 6.0 9.0 0.00 0.00 0.00 69 1014.0
20260905104104 81 186 6.0 9.0 0.00 0.00 0.00 69 1014.1
20260905103604 81 184 6.0 9.0 0.00 0.00 0.00 69 1014.1
20260905103105 81 185 6.0 8.0 0.00 0.00 0.00 68 1014.2
20260905102104 82 189 5.0 9.0 0.00 0.00 0.00 68 1013.9
20260905101105 82 182 6.0 10.0 0.00 0.00 0.00 67 1013.9
20260905100604 82 187 6.0 10.0 0.00 0.00 0.00 67 1013.8
20260905100104 82 183 5.0 9.0 0.00 0.00 0.00 67 1013.9
20260905095604 82 178 6.0 12.0 0.00 0.00 0.00 66 1013.8
20260905094604 83 173 7.0 12.0 0.00 0.00 0.00 66 1013.9
20260905094105 83 172 6.0 10.0 0.00 0.00 0.00 66 1013.9
20260905093105 83 174 7.0 12.0 0.00 0.00 0.00 66 1013.9
20260905092104 83 170 7.0 12.0 0.00 0.00 0.00 65 1013.8
20260905091104 83 175 7.0 12.0 0.00 0.00 0.00 65 1013.9
20260905090605 83 175 7.0 12.0 0.00 0.00 0.00 65 1013.9
20260905090105 83 182 6.0 12.0 0.00 0.00 0.00 65 1013.9
20260905085605 83 175 7.0 12.0 0.00 0.00 0.00 65 1013.9
20260905085105 83 181 6.0 12.0 0.00 0.00 0.00 65 1013.9
20260905084604 84 174 6.0 12.0 0.00 0.00 0.00 64 1013.9
20260905084105 84 179 7.0 12.0 0.00 0.00 0.00 64 1013.9
20260905083604 84 183 7.0 12.0 0.00 0.00 0.00 64 1013.8
20260905083105 84 183 7.0 12.0 0.00 0.00 0.00 64 1013.8
20260905082605 84 190 6.0 12.0 0.00 0.00 0.00 64 1013.7
20260905082105 84 176 7.0 14.0 0.00 0.00 0.00 64 1013.6
20260905081605 84 195 8.0 15.0 0.00 0.00 0.00 64 1013.6
20260905080604 85 175 9.0 15.0 0.00 0.00 0.00 63 1013.5
20260905080104 85 173 9.0 15.0 0.00 0.00 0.00 63 1013.5
20260905075104 85 168 10.0 16.0 0.00 0.00 0.00 62 1013.4
20260905074605 85 182 10.0 16.0 0.00 0.00 0.00 62 1013.4
20260905073605 85 176 10.0 16.0 0.00 0.00 0.00 62 1013.4